AirNav   ProFlight Series 2 Aviation Headset
 
 894 users online  

7PN3 Suburban Community Hospital Heliport
Norristown, Pennsylvania, USA

GOING TO NORRISTOWN?


FAA INFORMATION EFFECTIVE 18 JUNE 2020

Location

FAA Identifier: 7PN3
Lat/Long: 40-08-24.2500N 075-18-53.5200W
40-08.404167N 075-18.892000W
40.1400694,-75.3148667
(estimated)
Elevation: 316 ft. / 96 m (estimated)
Variation: 11W (1985)
From city: 1 mile NE of NORRISTOWN, PA
Time zone: UTC -4 (UTC -5 during Standard Time)
Zip code: 19403

Heliport Operations

Heliport use: Private use, MEDICAL USE.
Activation date: 02/1978
Control tower: no
ARTCC: NEW YORK CENTER
FSS: WILLIAMSPORT FLIGHT SERVICE STATION
Attendance: CONTINUOUS
Wind indicator: yes
Segmented circle: no
Lights: SS-SR

Heliport Communications

UNICOM: 122.8
WX AWOS-3 at LOM (2.3 nm E): 118.925 (215-646-1068)
WX ASOS at PTW (13 nm NW): 119.425 (610-495-0823)
WX ASOS at PNE (14 nm E): 121.15 (215-677-0146)
WX ASOS at DYL (15 nm NE): 118.875 (215-345-0392)
WX AWOS-3 at CKZ (15 nm N): 126.325 (215-257-7291)
WX AWOS-3T at OQN (15 nm SW): 121.4 ((610) 692-6190)
WX ASOS at PHL (16 nm S): PHONE 215-492-9617
WX AWOS-3 at UKT (18 nm N): 119.475 (215-538-7610)

Nearby radio navigation aids

VOR radial/distance  VOR name  Freq  Var
PTWr123/12.3POTTSTOWN VORTAC116.5009W
ARDr260/19.9YARDLEY VOR/DME108.2010W
MXEr060/21.1MODENA VORTAC113.2009W
OODr009/30.2WOODSTOWN VORTAC112.8010W
DQOr036/30.8DUPONT VORTAC114.0010W
ETXr156/31.4EAST TEXAS VOR/DME110.2009W
GXUr295/33.9MC GUIRE VORTAC110.6012W
FJCr180/35.8ALLENTOWN VORTAC117.5010W
SBJr235/37.3SOLBERG VOR/DME112.9010W
RBVr274/37.8ROBBINSVILLE VORTAC113.8010W
VCNr346/39.5CEDAR LAKE VOR/DME115.2010W

 
NDB name  Hdg/Dist  Freq  Var  ID
AMBLER314/1.627512WING .. -. --.

Heliport Services

Runway Information

Helipad H1

Dimensions: 60 x 60 ft. / 18 x 18 m
Surface: asphalt/concrete, in good condition
60 FT DIAMETER CONC/PAVED TLOF.
Runway edge lights: PERI
Latitude: 40-08.404167N
Longitude: 075-18.892000W
Elevation: 316.0 ft.
Traffic pattern: leftleft
Markings: none, in fair condition

Heliport Ownership and Management from official FAA records

Ownership: Privately-owned
Owner: PRIME HEALTHCARE SERVICES
2701 DEKALB PIKE
NORRISTOWN, PA 19401
Phone 610-278-2000
Manager: JAMES ALLEN
2701 DEKALB PIKE
NORRISTOWN, PA 19401
Phone 610-278-2094

Additional Remarks

FOR CD CTC PHILADELPHIA APCH AT 800-354-9884.
APP HDG 190; DEP HDG 010.

Instrument Procedures

There are no published instrument procedures at 7PN3.

Some nearby airports with instrument procedures:

KLOM - Wings Field Airport (2 nm E)
N10 - Perkiomen Valley Airport (7 nm NW)
KPTW - Heritage Field Airport (13 nm NW)
KPNE - Northeast Philadelphia Airport (14 nm E)
KDYL - Doylestown Airport (15 nm NE)
KCKZ - Pennridge Airport (15 nm N)
KOQN - Brandywine Regional Airport (15 nm SW)
KPHL - Philadelphia International Airport (16 nm S)
N47 - Pottstown Municipal Airport (18 nm NW)
KUKT - Quakertown Airport (18 nm N)
 
Loc | Ops | Rwys | IFR | FBO | Links
Com | Nav | Svcs | Stats | Notes
Area around 7PN3 (Suburban Community Hospital Heliport)
 
Road maps at: MapQuest Bing Google
 
Aerial photo
No photo
 
Sectional chart

 
Airport distance calculator
Flying to Suburban Community Hospital Heliport? Find the distance to fly.

From to 7PN3

Sunrise and sunset
Times for 07-Jul-2020
 Local
(UTC-4)
 Zulu
(UTC)
Morning civil twilight05:0809:08
Sunrise05:4109:41
Sunset20:3200:32
Evening civil twilight21:0401:04

Current date and time
Zulu (UTC)  08-Jul-2020 01:23:02
Local (UTC-4)  07-Jul-2020 21:23:02
 
METAR
KLOM 
2nm E 
080055Z AUTO 17003KT 10SM CLR 26/22 A3003 RMK AO2 P0001 T02590224
KPTW 
12nm NW 
080054Z AUTO 19003KT 8SM CLR 26/22 A3004 RMK AO2 SLP167 T02610217 $
KPNE 
14nm E 
080054Z AUTO 18005KT 10SM SCT085 26/23 A3004 RMK AO2 RAE2359 SLP172 P0000 T02560228
KDYL 
15nm NE 
080054Z AUTO 00000KT 10SM SCT039 BKN055 26/21 A3003 RMK AO2 SLP165 T02610206
KCKZ 
15nm N 
080055Z AUTO 00000KT 7SM FEW006 SCT029 BKN034 23/23 A3005 RMK AO2 P0015
KOQN 
15nm SW 
080055Z AUTO 00000KT 10SM CLR 26/21 A3005 RMK AO2
KPHL 
17nm S 
080054Z 18007KT 10SM FEW150 FEW250 27/21 A3003 RMK AO2 SLP169 T02720211
KUKT 
18nm N 
080055Z AUTO 00000KT 10SM SCT038 BKN045 BKN055 27/23 A3004 RMK A01
TAF
KPNE 
14nm E 
071739Z 0718/0818 VRB04KT P6SM FEW035 FEW045 FM071900 16005KT P6SM VCTS BKN060CB FM080100 VRB03KT P6SM SCT060 FM081600 VRB04KT P6SM BKN035
KPHL 
17nm S 
072053Z 0721/0824 19006KT P6SM BKN045 FM080100 VRB03KT P6SM BKN090 FM081100 VRB04KT P6SM BKN030 FM081400 VRB04KT P6SM BKN035
NOTAMs
Click for the latest NOTAMs
NOTAMs are issued by the DoD/FAA and will open in a separate window not controlled by AirNav.

 

 
 

Would you like to see your business listed on this page?

 If your business provides an interesting product or service to pilots, flight crews, aircraft, or users of the Suburban Community Hospital Heliport, you should consider listing it here.  To start the listing process, click on the button below
 
Add a business
 

Other Pages about Suburban Community Hospital Heliport

Update a link
 
Copyright © AirNav, LLC. All rights reserved. Privacy Policy  Contact